Temp
-0 -0 -0 -0 -0 0 0 0 0 0 1 1 1 1 1 1 1 1 1 1 1 1 1 1 1 1 1 1 1 1 1 2 2 2 2 2 3 3 3 3 3 4 4 4 4 4 4 4 4 4 4 4 4 4 4 4 4 4 4 4 4 4 5 5 5 5 5 6 6
-1 -1 -1 -0 -0 -0 -0 -0 -0 0 0 0 0 0 0 0 0 0 0 0 0 1 1 1 1 1 1 1 1 1 1 1 1 2 2 2 2 2 3 3 3 3 3 3 4 4 4 4 4 4 3 3 3 3 3 3 3 3 3 3 3 4 4 4 4 4 4 4 5
-1 -1 -1 -1 -1 -1 -1 -1 -0 -0 -0 -0 -0 -0 0 0 0 0 0 0 0 0 0 0 0 1 1 1 1 1 1 1 1 1 1 1 2 2 2 2 2 2 3 3 3 3 3 3 3 3 3 3 3 2 2 2 3 3 3 3 3 3 3 3 3 3 3 3 4
-1 -1 -1 -1 -1 -1 -1 -1 -1 -1 -1 -1 -0 -0 -0 -0 -0 -0 0 0 0 0 0 0 0 0 0 0 0 0 1 1 1 1 1 1 1 1 2 2 2 2 2 2 2 2 2 2 2 2 2 2 2 2 2 2 2 2 2 2 2 2 2 2 2 3 3 3 3
-2 -1 -1 -1 -1 -1 -1 -1 -1 -1 -1 -1 -1 -1 -1 -0 -0 -0 -0 -0 -0 -0 0 0 0 0 0 0 0 0 0 0 0 1 1 1 1 1 1 1 1 1 2 2 2 2 2 2 2 2 2 2 1 1 1 1 1 1 2 2 2 2 2 2 2 2 2 2 2
-2 -2 -2 -2 -1 -1 -1 -1 -1 -1 -1 -1 -1 -1 -1 -1 -1 -0 -0 -0 -0 -0 -0 -0 -0 0 0 0 0 0 0 0 0 0 0 0 0 0 1 1 1 1 1 1 1 1 1 2 1 1 1 1 1 1 1 1 1 1 1 1 1 1 1 1 1 1 1 2 2
-2 -2 -2 -2 -2 -2 -2 -1 -1 -1 -1 -1 -1 -1 -1 -1 -1 -1 -1 -0 -0 -0 -0 -0 -0 -0 -0 -0 0 0 0 0 0 0 0 0 0 0 0 0 0 0 0 1 1 1 1 1 1 1 1 1 1 1 1 1 1 1 0 0 0 0 0 0 1 1 1 1 1
-2 -2 -2 -2 -2 -2 -2 -1 -1 -1 -1 -1 -1 -1 -1 -1 -1 -1 -1 -0 -0 -0 -0 -0 -0 -0 -0 -0 -0 -0 -0 0 0 0 0 0 0 0 -0 -0 -0 -0 -0 0 0 0 0 0 0 -0 -0 -0 -0 -0 0 0 0 0 -0 -0 -0 -0 -0 0 0 0 0 1 1
-1 -2 -2 -2 -2 -2 -1 -1 -1 -1 -1 -1 -1 -1 -1 -1 -1 -1 -1 -1 -1 -0 -0 -0 -0 -0 -0 -0 -0 -0 -0 -0 0 0 0 0 0 0 -0 -0 -0 -0 -0 -0 -0 -0 -0 -0 -1 -1 -1 -1 -1 -0 -0 -0 -0 -0 -1 -1 -1 -0 -0 -0 -0 -0 -0 0 0
-2 -2 -1 -1 -1 -1 -1 -1 -1 -1 -1 -1 -1 -1 -1 -1 -1 -1 -1 -1 -0 -0 -0 -0 0 0 0 -0 -0 -0 -0 -0 -0 0 0 0 0 0 -0 -0 -0 -1 -1 -1 -1 -1 -1 -1 -1 -1 -1 -1 -1 -1 -0 -0 -0 -1 -1 -1 -1 -1 -1 -1 -1 -1 -1 -0 -0
-2 -2 -1 -1 -1 -1 -1 -1 -1 -1 -1 -1 -1 -1 -1 -1 -1 -1 -1 -1 -0 -0 -0 -0 0 0 0 -0 -0 -0 -0 -0 -0 -0 0 0 0 0 0 -0 -0 -0 -1 -1 -1 -1 -1 -1 -1 -1 -1 -1 -1 -1 -1 -1 -1 -1 -1 -1 -1 -1 -1 -1 -1 -1 -1 -1 -1
-1 -1 -1 -1 -1 -1 -1 -1 -1 -1 -1 -1 -1 -1 -1 -1 -1 -1 -1 -0 -0 -0 -0 -0 -0 -0 -0 -0 -0 -0 -0 -0 -0 -0 -0 0 0 0 0 0 -0 -0 -1 -1 -1 -1 -1 -1 -1 -1 -1 -1 -1 -1 -1 -1 -1 -1 -1 -1 -1 -2 -2 -2 -2 -2 -1 -1 -1
-1 -1 -1 -1 -1 -1 -1 -1 -1 -1 -1 -1 -1 -1 -1 -1 -1 -1 -0 -0 -0 -1 -0 -0 -0 -0 -0 -0 -0 -0 -0 -1 -1 -1 -0 -0 -0 0 0 0 -0 -0 -1 -1 -1 -1 -1 -1 -1 -1 -1 -2 -2 -2 -1 -1 -2 -2 -2 -2 -2 -2 -2 -2 -2 -2 -2 -1 -1
-2 -2 -1 -1 -1 -1 -1 -1 -1 -1 -1 -1 -1 -1 -1 -1 -1 -0 -0 -0 -0 -0 -0 -0 -0 -0 -0 -0 -0 -0 -0 -1 -1 -1 -1 -1 -0 -0 -0 -0 -0 -0 -1 -1 -1 -1 -1 -1 -1 -2 -2 -2 -2 -2 -2 -2 -2 -2 -2 -2 -2 -2 -2 -2 -2 -2 -2 -2 -2
-2 -1 -1 -1 -1 -1 -1 -1 -1 -1 -1 -1 -1 -1 -1 -1 -1 -0 -0 -0 -0 -0 -0 -0 -0 -0 -0 -0 -0 -0 -0 -1 -1 -1 -1 -1 -1 -0 -0 -0 -0 -0 -0 -1 -1 -1 -1 -1 -2 -2 -2 -2 -2 -2 -2 -2 -2 -2 -3 -3 -3 -3 -3 -3 -2 -2 -2 -2 -2
-1 -1 -1 -1 -1 -1 -1 -1 -1 -1 -1 -1 -1 -1 -1 -1 -1 -0 -0 -0 -0 -0 -0 -0 -0 -0 -0 -0 -0 -0 -1 -1 -1 -1 -1 -1 -1 -1 -1 -1 -1 -1 -1 -1 -1 -1 -1 -1 -2 -2 -2 -2 -2 -2 -2 -2 -2 -3 -3 -3 -3 -3 -3 -3 -3 -2 -2 -2 -2
-1 -1 -1 -1 -1 -1 -1 -1 -2 -1 -1 -1 -1 -1 -1 -1 -1 -1 -0 -0 -0 -0 -0 -0 -0 -0 -0 -0 -0 -0 -1 -1 -1 -1 -1 -1 -1 -1 -1 -1 -1 -1 -1 -1 -1 -1 -1 -1 -1 -2 -2 -2 -2 -2 -2 -2 -2 -3 -3 -3 -3 -3 -3 -3 -3 -3 -3 -3 -2
-1 -1 -1 -1 -1 -1 -1 -1 -1 -1 -1 -1 -1 -1 -1 -1 -1 -1 -1 -0 -0 -0 -0 -0 -0 -0 -0 -0 -1 -1 -1 -1 -1 -1 -1 -1 -1 -1 -1 -1 -1 -1 -1 -1 -1 -1 -1 -1 -1 -2 -2 -2 -2 -2 -2 -2 -3 -3 -3 -3 -3 -3 -3 -3 -3 -3 -3 -3 -3
-2 -1 -1 -1 -1 -1 -1 -1 -1 -1 -1 -1 -1 -1 -1 -1 -1 -1 -1 -1 -0 -0 -0 -0 -0 -0 -0 -0 -1 -1 -1 -1 -1 -1 -1 -1 -1 -1 -1 -1 -1 -1 -1 -1 -1 -1 -1 -1 -1 -2 -2 -2 -2 -2 -2 -2 -3 -3 -3 -3 -3 -3 -3 -3 -3 -2 -2 -3 -3
-2 -2 -2 -2 -1 -1 -1 -1 -1 -1 -1 -1 -1 -1 -1 -1 -1 -1 -1 -1 -1 -1 -1 -1 -1 -1 -1 -1 -1 -1 -1 -1 -1 -1 -1 -1 -1 -1 -1 -1 -1 -1 -1 -1 -1 -1 -2 -2 -2 -2 -2 -2 -2 -2 -2 -2 -3 -3 -3 -3 -3 -3 -3 -3 -3 -3 -2 -2 -2
-2 -2 -2 -2 -1 -1 -1 -1 -1 -1 -1 -1 -1 -1 -1 -1 -1 -1 -1 -1 -1 -1 -1 -1 -1 -1 -1 -1 -1 -1 -1 -1 -1 -1 -1 -1 -1 -1 -1 -1 -1 -1 -1 -1 -2 -2 -2 -2 -2 -2 -2 -2 -2 -2 -3 -3 -3 -3 -3 -3 -3 -3 -3 -3 -3 -3 -3 -3 -3
-2 -2 -2 -2 -2 -1 -1 -1 -1 -1 -1 -1 -1 -1 -1 -1 -1 -1 -1 -1 -1 -1 -1 -1 -1 -1 -1 -1 -1 -1 -1 -1 -1 -1 -1 -1 -1 -1 -1 -1 -1 -1 -1 -1 -2 -2 -2 -2 -2 -2 -2 -2 -3 -3 -3 -3 -3 -3 -3 -3 -3 -3 -3 -3 -3 -3 -3 -3 -3
-2 -2 -2 -2 -2 -1 -1 -1 -1 -1 -1 -1 -1 -1 -1 -1 -1 -1 -1 -1 -1 -1 -1 -1 -1 -1 -1 -1 -1 -1 -1 -1 -1 -1 -1 -1 -1 -1 -1 -1 -1 -1 -1 -1 -2 -2 -2 -2 -2 -3 -3 -3 -3 -3 -3 -4 -4 -4 -4 -4 -4 -4 -4 -4 -3 -3 -3 -3 -3
-2 -2 -2 -2 -2 -1 -1 -1 -1 -1 -1 -1 -1 -1 -1 -1 -1 -1 -1 -1 -1 -1 -1 -1 -1 -1 -1 -1 -1 -1 -1 -1 -1 -1 -1 -1 -1 -1 -1 -1 -1 -1 -1 -1 -2 -2 -2 -3 -3 -3 -3 -3 -3 -4 -4 -4 -4 -4 -4 -4 -4 -4 -4 -4 -3 -3 -3 -3 -3
-2 -2 -2 -2 -2 -1 -1 -1 -1 -1 -1 -1 -1 -1 -1 -1 -1 -1 -1 -1 -1 -1 -1 -1 -1 -1 -1 -1 -1 -1 -1 -1 -1 -1 -1 -1 -1 -1 -1 -1 -1 -1 -1 -1 -1 -2 -2 -3 -3 -3 -3 -4 -4 -4 -4 -4 -4 -4 -4 -4 -4 -4 -4 -3 -3 -3 -3 -3 -3
-3 -2 -2 -2 -2 -2 -2 -2 -2 -2 -2 -2 -2 -2 -2 -1 -1 -1 -1 -1 -1 -1 -1 -1 -1 -1 -1 -2 -2 -2 -2 -2 -1 -1 -1 -1 -1 -1 -1 -1 -1 -1 -1 -1 -2 -2 -2 -2 -3 -3 -4 -4 -4 -4 -4 -4 -4 -4 -4 -4 -4 -4 -4 -4 -4 -3 -3 -3 -3
-3 -3 -3 -2 -2 -2 -2 -2 -2 -2 -2 -2 -2 -2 -2 -2 -2 -2 -1 -1 -2 -1 -1 -1 -1 -2 -2 -2 -2 -2 -2 -2 -2 -2 -1 -1 -1 -1 -1 -1 -1 -1 -1 -1 -2 -2 -2 -2 -3 -3 -4 -4 -4 -4 -4 -4 -4 -4 -4 -4 -4 -4 -4 -4 -4 -4 -3 -3 -3
-3 -3 -3 -3 -3 -3 -3 -3 -2 -2 -2 -2 -2 -2 -2 -2 -2 -2 -2 -2 -2 -2 -2 -2 -2 -2 -2 -2 -2 -2 -2 -2 -2 -2 -2 -2 -1 -1 -1 -1 -1 -1 -1 -1 -2 -2 -2 -3 -3 -3 -4 -4 -4 -4 -4 -4 -4 -5 -5 -5 -5 -5 -5 -5 -5 -4 -4 -4 -3
-4 -3 -3 -3 -3 -3 -3 -3 -3 -3 -3 -3 -3 -2 -2 -2 -2 -2 -2 -2 -2 -2 -2 -2 -2 -2 -2 -2 -2 -2 -2 -2 -2 -2 -2 -2 -2 -2 -1 -1 -1 -1 -1 -1 -1 -2 -2 -3 -3 -3 -4 -4 -4 -4 -5 -5 -5 -5 -5 -5 -5 -5 -5 -5 -5 -5 -5 -4 -4
-4 -4 -3 -3 -3 -3 -3 -3 -3 -3 -3 -3 -3 -3 -3 -2 -2 -3 -3 -3 -3 -3 -3 -3 -2 -2 -2 -2 -2 -2 -2 -2 -2 -2 -2 -2 -2 -2 -2 -2 -1 -1 -1 -1 -1 -2 -2 -3 -3 -3 -4 -4 -4 -5 -5 -5 -5 -5 -5 -5 -5 -5 -5 -5 -5 -5 -5 -5 -4
-4 -4 -4 -3 -3 -3 -3 -3 -3 -3 -3 -3 -3 -3 -3 -3 -3 -3 -3 -3 -3 -3 -3 -3 -3 -3 -3 -3 -3 -3 -3 -3 -3 -2 -2 -2 -2 -2 -2 -2 -2 -2 -1 -1 -1 -2 -2 -3 -3 -3 -4 -4 -5 -5 -5 -5 -5 -5 -5 -5 -5 -5 -5 -5 -5 -5 -5 -5 -5
-4 -4 -4 -4 -4 -4 -4 -4 -4 -4 -4 -3 -3 -3 -3 -3 -3 -4 -4 -4 -4 -4 -4 -3 -3 -3 -3 -3 -3 -3 -3 -3 -3 -3 -3 -3 -3 -3 -3 -2 -2 -2 -2 -1 -1 -2 -2 -3 -3 -4 -4 -4 -5 -5 -5 -5 -5 -5 -5 -5 -5 -6 -6 -6 -6 -6 -6 -5 -5
-5 -4 -4 -4 -4 -4 -4 -4 -4 -4 -4 -4 -4 -4 -4 -4 -4 -4 -4 -4 -4 -4 -4 -4 -4 -4 -4 -4 -4 -4 -4 -4 -3 -3 -3 -3 -3 -3 -3 -3 -3 -3 -2 -2 -1 -2 -2 -3 -3 -4 -4 -4 -5 -5 -5 -5 -5 -5 -5 -5 -6 -6 -6 -6 -6 -6 -6 -6 -5
-5 -5 -5 -4 -4 -4 -4 -4 -4 -4 -4 -4 -4 -4 -4 -4 -4 -4 -4 -4 -4 -4 -4 -4 -4 -5 -5 -5 -5 -5 -4 -4 -4 -4 -3 -3 -3 -3 -3 -3 -3 -3 -2 -2 -1 -2 -2 -3 -3 -4 -4 -5 -5 -5 -5 -5 -5 -5 -5 -6 -6 -6 -6 -6 -6 -6 -6 -6 -5
-5 -5 -5 -5 -5 -5 -5 -5 -5 -4 -4 -4 -4 -4 -4 -4 -4 -5 -5 -5 -5 -5 -5 -5 -5 -5 -5 -5 -5 -5 -5 -5 -4 -4 -4 -4 -3 -3 -3 -3 -3 -3 -3 -2 -2 -2 -2 -3 -3 -4 -4 -5 -5 -5 -5 -5 -5 -5 -5 -6 -6 -6 -6 -6 -6 -6 -6 -6 -5
-5 -5 -5 -5 -5 -5 -5 -5 -5 -5 -4 -5 -5 -5 -5 -5 -5 -5 -5 -5 -5 -5 -5 -5 -5 -5 -5 -5 -5 -5 -5 -5 -5 -5 -4 -4 -3 -3 -3 -3 -3 -3 -3 -3 -2 -2 -2 -3 -3 -4 -4 -5 -5 -5 -5 -5 -5 -5 -5 -6 -6 -6 -6 -6 -6 -6 -6 -6 -6
-5 -5 -5 -5 -5 -5 -5 -5 -5 -5 -5 -5 -5 -5 -5 -5 -5 -5 -5 -5 -5 -5 -5 -5 -5 -5 -6 -6 -6 -6 -6 -6 -5 -5 -5 -4 -4 -4 -4 -3 -3 -3 -3 -3 -2 -2 -2 -3 -3 -4 -4 -5 -5 -5 -5 -5 -5 -5 -6 -6 -6 -6 -6 -6 -6 -6 -6 -6 -6
-5 -5 -5 -5 -5 -5 -5 -5 -5 -5 -5 -5 -5 -5 -5 -5 -5 -5 -5 -5 -5 -5 -5 -5 -6 -6 -6 -6 -6 -6 -6 -6 -6 -5 -5 -5 -5 -4 -4 -4 -4 -4 -4 -3 -2 -2 -2 -2 -3 -3 -4 -5 -5 -5 -5 -5 -5 -5 -5 -6 -6 -6 -6 -6 -6 -6 -6 -6 -6
-5 -5 -5 -5 -5 -5 -5 -5 -5 -5 -5 -5 -5 -5 -5 -5 -5 -5 -5 -5 -6 -6 -6 -6 -6 -6 -6 -6 -6 -6 -6 -6 -6 -5 -5 -5 -5 -5 -4 -4 -4 -4 -4 -3 -3 -2 -2 -2 -3 -3 -4 -4 -5 -5 -5 -5 -5 -5 -5 -6 -6 -6 -6 -6 -6 -6 -6 -6 -6
-5 -5 -5 -5 -5 -5 -5 -5 -5 -5 -5 -5 -5 -5 -5 -6 -6 -6 -6 -6 -6 -6 -6 -6 -6 -6 -6 -6 -6 -6 -6 -6 -6 -6 -5 -5 -5 -5 -5 -5 -4 -4 -4 -4 -3 -2 -2 -2 -3 -3 -3 -4 -4 -5 -5 -5 -5 -5 -5 -6 -6 -6 -6 -6 -6 -6 -6 -6 -6
-5 -5 -5 -5 -5 -5 -5 -5 -5 -6 -6 -6 -6 -6 -6 -6 -6 -6 -6 -6 -6 -6 -6 -6 -6 -6 -6 -6 -6 -6 -6 -6 -6 -6 -6 -6 -5 -5 -5 -5 -5 -4 -4 -4 -3 -3 -3 -3 -3 -3 -3 -4 -4 -5 -5 -5 -4 -5 -5 -5 -6 -6 -6 -6 -6 -6 -6 -6 -6
Height
793 793 793 793 792 792 792 792 792 792 791 791 791 791 791 791 791 791 792 792 792 792 792 792 793 793 792 792 792 791 791 790 790 789 789 789 788 788 788 787 787 786 786 785 784 784 783 783 783 782 782 782 782 782 782 782 782 781 781 781 780 780 780 780 779 779 778 778 778
795 795 794 794 794 794 793 793 793 793 793 793 793 793 793 792 792 793 793 793 793 793 793 793 793 793 793 793 793 792 792 791 791 790 790 790 789 789 788 788 787 787 786 785 785 784 784 783 783 783 783 783 783 783 783 783 782 782 781 781 781 781 781 780 780 780 779 779 779
797 797 796 796 796 795 795 794 794 794 794 794 794 794 793 793 793 793 793 794 794 793 794 794 794 794 794 793 793 793 793 792 792 791 791 791 790 789 789 788 788 787 787 786 786 785 785 784 784 783 783 784 783 783 784 784 783 783 782 782 782 782 782 782 782 781 781 780 780
798 798 798 798 797 797 797 797 796 796 796 796 795 795 795 795 795 795 795 795 794 794 795 795 795 795 795 795 794 794 794 793 793 792 792 792 791 790 790 789 789 788 788 787 786 786 785 785 785 784 784 784 784 784 785 785 784 784 784 783 783 783 783 783 783 783 782 782 781
800 800 799 799 799 799 799 798 798 798 798 797 797 796 796 796 796 796 796 796 796 796 796 796 796 796 796 795 795 795 795 794 794 793 793 793 792 791 791 790 790 789 788 788 787 787 786 786 785 785 785 785 785 786 786 786 786 785 785 785 785 785 784 784 784 784 783 783 783
802 802 801 801 801 801 801 800 800 800 799 798 798 798 798 798 798 797 797 797 797 798 798 797 797 797 797 796 796 796 796 795 795 794 794 793 793 792 792 791 791 790 790 789 788 788 787 787 786 787 787 786 787 787 787 787 787 787 786 786 786 786 786 786 786 785 785 784 783
804 803 803 803 803 803 802 802 802 801 801 800 799 799 799 799 799 799 799 799 799 798 798 798 798 798 797 797 797 797 797 796 796 795 795 794 794 793 793 792 792 791 791 790 789 789 788 788 788 788 788 788 788 788 788 787 787 787 788 788 788 788 788 787 787 787 786 785 784
805 805 805 805 804 804 804 803 803 803 802 802 801 801 801 801 801 800 800 800 800 800 800 799 799 799 798 798 798 798 798 797 797 797 796 795 795 794 794 793 793 792 792 791 791 790 789 789 789 789 789 788 789 789 789 788 788 788 788 789 789 789 789 789 788 788 787 786 785
807 807 807 806 806 806 806 805 804 804 803 803 803 803 803 802 802 802 802 802 801 801 801 801 800 800 799 799 798 798 798 798 798 798 797 797 796 796 795 794 794 793 793 793 792 792 791 790 790 790 790 790 790 790 790 789 789 788 789 790 790 790 790 790 789 789 788 787 786
808 808 808 808 808 808 807 806 806 805 805 804 804 804 804 804 803 803 803 803 803 802 802 802 801 801 800 800 800 799 799 799 799 799 798 798 798 797 796 796 795 795 794 794 793 793 792 792 792 791 791 791 791 791 791 790 790 790 790 791 791 791 791 791 791 790 789 788 787
809 809 809 809 809 808 808 807 807 806 806 806 806 805 805 805 805 805 804 804 803 803 803 803 802 802 801 801 801 801 801 800 800 800 800 799 799 798 798 797 797 796 796 795 795 794 794 793 793 793 792 792 792 792 791 791 791 791 791 792 792 793 793 793 792 791 791 790 788
810 810 810 810 810 809 809 808 808 808 808 807 807 807 807 806 806 806 805 805 804 804 804 804 803 803 803 803 803 802 802 802 801 801 801 801 800 800 799 799 798 798 797 797 796 796 795 794 794 793 793 793 793 793 793 792 792 792 793 793 793 793 794 793 793 793 792 791 789
811 811 811 811 810 810 810 809 809 809 808 808 808 808 808 808 808 807 806 806 805 805 805 805 805 804 804 804 804 803 803 803 803 802 802 802 802 801 801 800 799 799 798 798 798 797 796 796 795 794 794 794 794 794 794 794 793 794 794 795 795 795 795 795 794 793 793 791 790
813 812 812 812 811 811 810 810 810 809 809 809 809 809 809 808 808 808 807 807 807 806 806 806 806 806 806 806 805 805 804 804 804 803 803 803 803 803 802 802 801 800 800 799 798 798 797 797 796 796 795 795 795 795 795 795 795 795 796 796 796 796 796 796 795 794 793 792 791
813 813 813 812 812 811 811 811 811 810 810 810 810 810 809 809 809 809 808 808 808 808 807 807 807 807 807 807 807 806 806 805 805 805 805 804 804 804 803 803 802 802 801 800 800 799 798 798 798 797 797 797 797 797 797 797 797 797 797 797 797 797 797 796 795 794 793 793 792
813 813 813 813 812 812 812 812 812 811 811 811 811 811 810 810 810 809 809 809 809 808 808 808 808 808 808 808 808 808 807 807 806 806 806 806 806 805 804 804 803 803 802 801 801 800 800 799 799 799 798 798 798 798 798 798 798 798 798 798 798 798 798 797 796 795 794 794 793
814 814 813 813 813 813 813 813 813 812 812 812 812 811 811 811 811 810 810 810 810 810 809 809 809 809 809 809 809 808 808 808 807 807 807 807 807 806 806 805 804 804 803 803 802 802 801 801 800 800 800 800 799 799 799 799 799 799 799 799 799 798 798 797 797 796 795 794 794
815 815 814 814 814 814 814 814 813 813 813 813 813 812 812 812 812 811 811 811 811 811 811 811 810 810 810 810 810 809 809 809 808 808 808 808 808 807 807 806 805 805 804 804 803 803 803 802 802 802 801 801 801 801 800 800 800 800 800 800 799 799 798 798 797 797 796 795 795
816 815 815 815 815 815 815 815 814 814 814 814 813 813 813 813 813 812 812 812 812 812 812 812 812 811 811 811 811 810 810 810 810 809 809 809 808 808 808 807 807 806 805 805 804 804 804 803 803 803 802 802 802 802 802 801 801 801 801 800 800 799 799 798 798 797 797 796 796
816 816 816 816 816 816 816 815 815 815 815 815 814 814 814 814 813 813 813 813 813 813 813 813 813 812 812 812 812 811 811 811 811 810 810 809 809 809 809 808 808 807 806 806 805 805 805 804 804 803 803 803 803 803 803 802 802 802 802 801 801 800 800 799 798 798 798 797 797
817 817 817 817 817 816 816 816 816 816 815 815 815 815 815 815 814 814 814 814 814 814 814 813 813 813 813 813 813 812 812 812 811 811 811 810 810 810 810 809 809 808 808 807 806 806 806 805 805 804 804 804 804 804 803 803 803 803 803 802 802 801 801 800 799 799 798 798 797
818 818 817 817 817 817 817 817 816 816 816 816 816 816 815 815 815 815 815 815 815 815 814 814 814 814 814 813 813 813 813 813 812 812 811 811 811 810 810 810 810 809 808 808 807 807 807 806 806 806 806 806 805 805 805 805 804 804 803 803 803 802 802 801 800 800 799 799 798
818 818 818 818 818 817 817 817 817 817 817 817 817 816 816 816 816 816 816 816 816 815 815 815 815 815 814 814 814 814 814 813 813 813 812 812 811 811 811 811 811 810 810 809 809 808 808 808 808 808 808 807 807 807 806 806 805 805 804 804 803 803 802 802 801 800 800 799 798
819 819 818 818 818 818 818 818 818 818 817 817 817 817 817 817 817 817 817 817 816 816 816 816 816 815 815 815 815 815 814 814 813 813 813 813 812 812 812 812 812 812 812 812 812 811 810 810 809 809 809 808 808 808 807 807 806 805 805 804 803 803 802 802 801 800 800 799 798
819 819 819 819 819 818 818 818 818 818 818 818 818 818 818 818 818 818 817 817 817 817 817 817 816 816 816 816 816 815 815 815 815 814 814 814 813 813 813 813 813 813 813 813 813 813 812 811 811 810 810 809 809 808 808 807 807 806 805 804 803 803 802 801 801 800 800 799 798
820 820 820 819 819 819 819 819 819 818 818 818 818 818 818 818 818 818 818 818 818 818 817 817 817 817 817 817 817 816 816 816 816 816 816 815 815 814 814 813 814 814 814 814 814 814 813 813 812 811 810 810 809 808 808 807 807 806 805 804 803 803 802 801 801 800 800 799 799
821 820 820 820 820 820 819 819 819 819 819 819 819 819 819 819 819 818 818 818 818 818 818 818 818 818 818 818 818 818 818 818 818 817 817 817 816 815 815 814 814 814 815 815 815 814 814 813 813 812 811 810 809 809 808 808 807 806 805 805 804 803 803 802 802 801 800 800 800
821 821 821 821 820 820 820 820 820 820 819 819 819 819 819 819 819 819 819 819 819 818 818 818 818 818 818 818 818 818 819 819 818 818 818 818 817 816 815 815 814 814 815 815 815 814 814 813 813 812 811 810 809 809 808 808 808 807 806 806 805 804 804 803 803 802 801 801 800
822 822 821 821 821 821 820 820 820 820 820 820 820 820 820 820 819 819 819 819 819 819 819 819 819 819 819 819 819 819 819 819 819 819 819 818 818 817 816 815 814 815 815 816 815 815 814 814 813 813 812 811 810 810 809 809 808 808 807 806 806 805 805 804 804 803 802 802 801
822 822 822 821 821 821 821 821 820 820 820 820 820 820 820 820 820 820 820 820 820 820 820 820 820 820 820 820 820 819 819 819 819 819 819 819 818 818 817 816 815 815 816 816 816 815 815 814 814 813 812 812 811 810 810 809 809 808 808 807 807 806 805 805 804 804 803 803 802
823 822 822 822 821 821 821 821 821 821 821 821 821 821 821 820 820 820 820 820 820 820 820 820 820 820 820 820 820 820 820 820 820 819 819 819 819 818 818 817 816 815 816 817 816 815 815 815 814 813 813 812 811 811 810 810 809 809 808 808 807 807 806 805 805 804 804 803 803
823 823 822 822 822 821 821 821 821 821 821 821 821 821 821 821 821 821 821 821 821 821 821 821 821 820 820 820 820 820 820 820 820 820 819 819 819 819 818 818 817 816 816 817 816 816 815 815 814 814 813 812 812 811 811 810 810 809 809 808 808 807 807 806 806 805 805 804 804
823 823 823 822 822 822 822 822 822 822 822 822 822 822 821 821 822 822 822 822 822 822 821 821 821 821 821 820 820 820 820 820 820 820 820 819 819 819 818 818 817 816 816 816 816 816 815 815 815 814 813 813 812 812 811 811 811 810 810 809 808 808 808 807 807 806 806 805 805
823 823 823 823 823 823 823 823 823 822 822 822 822 822 822 822 822 822 822 822 822 822 822 821 821 821 821 821 820 820 820 820 820 820 819 819 819 819 819 818 818 817 817 816 817 816 816 815 815 815 814 813 813 812 812 812 811 811 810 810 809 809 808 808 807 807 806 805 805
824 824 823 823 823 823 823 823 823 823 823 823 823 823 823 823 823 823 823 823 822 822 822 822 822 821 821 821 821 820 820 820 820 820 819 819 819 819 819 818 818 818 817 816 817 817 816 816 815 815 814 814 813 813 812 812 812 811 811 810 810 809 808 808 807 807 806 805 804
824 824 824 824 823 823 823 823 823 823 823 823 823 823 823 823 823 823 823 823 823 823 822 822 822 822 821 821 821 821 820 820 820 820 819 819 819 819 819 819 818 818 817 816 818 818 817 816 815 815 815 814 813 813 813 812 812 811 811 810 810 809 808 808 807 807 806 805 804
824 824 824 824 824 824 823 823 823 823 823 823 823 823 823 823 823 823 823 823 823 823 823 823 822 822 822 821 821 821 821 820 820 820 820 819 819 819 819 819 819 819 818 817 818 818 817 816 815 815 814 814 813 813 813 812 812 812 811 810 810 809 808 808 807 807 806 805 804
825 824 824 824 824 824 824 824 824 823 823 823 823 823 823 823 823 823 823 823 823 823 823 823 822 822 822 822 821 821 821 821 820 820 820 819 819 819 819 819 820 819 818 817 818 818 818 817 816 815 814 814 813 813 813 812 812 811 811 810 809 809 808 808 807 806 805 804 804
825 825 824 824 824 824 824 824 824 824 823 823 823 823 823 823 823 823 823 823 823 823 823 823 822 822 822 822 822 821 821 821 820 820 820 819 819 820 820 820 820 819 818 818 818 818 818 817 816 815 814 814 813 813 813 812 812 811 811 810 809 809 808 808 807 806 805 804 803
825 825 825 825 824 824 824 824 824 824 824 824 824 824 824 824 824 823 823 823 823 823 823 823 823 822 822 822 822 821 821 821 820 820 820 820 820 820 821 821 820 819 818 818 818 818 818 817 817 815 814 813 813 813 813 812 812 811 810 810 809 808 808 807 807 806 805 804 803
825 825 825 825 824 824 824 824 824 824 824 824 824 824 824 824 824 824 823 823 823 823 823 823 823 822 822 822 821 821 821 821 821 821 821 821 821 821 821 821 820 819 818 818 818 818 818 817 817 816 815 813 813 813 813 812 811 811 810 810 809 808 808 807 806 806 805 804 803
Wind_Speed
23 22 21 20 19 19 19 19 18 19 19 20 20 19 20 20 20 19 19 19 18 18 18 18 18 18 18 18 17 17 17 17 16 16 15 15 14 14 13 12 12 12 13 13 13 14 14 15 16 16 17 18 19 19 18 17 17 16 16 16 16 17 17 17 18 18 17 16 15
24 23 22 20 19 19 19 19 19 19 19 20 19 19 20 20 20 20 20 19 19 19 19 18 19 19 19 18 18 18 18 18 18 17 17 17 16 16 15 15 15 15 15 15 16 17 17 18 18 19 20 20 21 21 21 20 19 19 19 19 19 19 19 19 19 19 19 19 18
24 24 23 23 22 21 21 21 20 20 19 19 19 19 19 19 19 20 20 20 20 19 19 19 19 19 19 19 19 18 18 18 19 19 19 19 19 18 17 17 17 17 17 17 18 19 19 19 20 20 21 21 22 22 22 22 21 21 21 21 21 21 21 20 20 20 20 20 20
24 23 23 23 23 22 21 21 20 20 19 19 19 19 19 19 19 19 20 20 20 20 20 20 19 19 19 19 19 19 19 19 19 20 20 20 20 20 19 19 19 19 19 19 20 20 20 21 21 22 22 22 23 22 22 21 22 23 23 23 23 23 22 21 21 21 21 21 21
24 23 23 22 22 21 21 20 20 20 20 20 20 20 20 20 20 20 20 21 21 20 20 20 20 20 20 20 20 20 19 19 19 20 20 21 21 21 21 20 20 20 21 21 21 21 22 22 22 22 23 23 23 22 22 22 22 23 23 23 23 23 23 22 22 22 22 22 21
23 23 23 22 22 21 20 20 20 20 20 21 21 21 21 21 21 21 21 21 20 20 20 20 20 21 21 21 21 21 20 20 20 20 21 21 21 22 22 22 22 22 22 22 22 22 22 23 23 23 23 23 23 22 22 22 22 22 23 23 23 23 23 22 22 22 23 23 23
22 22 22 22 22 21 20 20 20 20 21 22 22 22 21 21 21 21 21 21 20 20 20 20 21 21 21 22 22 22 21 21 21 21 21 21 21 22 22 22 22 22 22 22 23 23 23 23 23 23 22 23 23 22 22 22 22 22 22 22 22 23 23 22 22 22 23 23 24
21 21 21 21 21 21 21 20 20 20 21 21 22 22 22 22 21 21 21 21 21 21 21 21 21 21 22 22 22 22 22 22 21 21 21 21 21 22 22 22 23 23 23 23 23 23 23 23 24 23 23 23 23 22 22 22 23 23 23 22 22 22 22 22 22 22 23 24 25
20 20 20 20 20 20 20 21 21 21 21 21 21 21 21 21 22 22 22 22 21 21 21 21 21 22 22 23 23 23 23 23 22 22 21 21 21 22 22 23 23 23 23 23 23 24 24 24 24 24 23 23 23 23 22 22 23 23 23 22 22 21 22 22 22 22 22 23 24
18 18 18 18 19 19 19 20 20 21 21 21 21 21 21 21 21 21 21 21 21 21 21 21 21 22 23 23 23 23 23 23 23 22 22 21 21 21 22 23 23 23 23 23 23 24 24 25 24 24 24 24 24 23 23 23 23 24 23 22 21 21 21 22 22 22 22 23 24
17 17 17 17 17 18 18 19 20 20 20 20 20 20 20 20 20 20 20 20 21 22 22 22 22 22 23 23 23 23 23 23 23 23 23 22 21 21 21 22 23 23 24 24 23 24 24 25 24 24 24 25 24 24 24 23 24 24 23 22 21 21 21 21 21 21 22 22 23
17 16 16 17 17 17 18 18 19 19 19 19 19 19 19 19 19 19 19 20 21 22 22 22 22 22 23 23 23 23 23 23 23 24 24 23 22 21 21 21 22 23 23 24 23 24 24 24 24 25 25 25 25 24 24 24 24 24 23 22 22 21 21 21 21 21 21 22 24
16 16 16 16 16 17 17 17 18 18 18 18 18 18 18 18 18 18 19 20 21 21 21 21 22 22 22 22 23 23 23 24 24 24 24 24 23 22 22 22 22 22 23 23 23 24 24 24 24 25 25 25 25 24 24 24 24 23 23 22 22 21 21 20 20 20 21 22 24
16 16 16 16 16 16 17 17 17 17 17 17 18 18 17 17 17 17 18 19 19 20 20 20 21 21 22 22 22 23 23 24 24 24 24 24 24 24 23 22 22 22 22 23 23 23 24 24 24 24 24 24 24 24 24 23 23 23 23 22 22 21 21 20 20 20 21 22 23
16 16 16 16 16 17 17 17 17 16 16 16 16 16 16 16 16 17 17 18 18 19 19 20 20 20 21 21 22 22 23 23 24 24 23 24 24 24 24 23 22 22 22 22 22 23 23 24 24 24 23 23 23 23 23 23 23 22 22 22 21 21 20 20 20 21 21 22 23
16 16 16 16 17 17 17 17 17 16 16 16 16 16 16 16 16 16 16 17 17 18 18 19 19 20 20 21 21 22 23 23 23 23 23 22 23 24 24 24 23 23 22 21 21 22 22 22 23 23 22 22 22 22 22 22 22 22 21 21 21 20 20 20 20 21 21 21 22
15 16 16 16 17 17 17 17 17 17 17 16 16 16 16 16 16 16 17 17 17 18 18 18 19 19 20 20 21 21 22 23 23 23 22 21 21 22 23 24 24 23 22 21 21 21 21 21 21 21 21 21 21 21 21 21 21 21 21 21 21 20 20 20 20 20 20 21 21
15 15 15 16 16 17 17 17 17 17 17 17 17 17 17 16 17 17 17 17 18 18 18 18 18 19 19 20 20 21 21 22 22 22 22 21 21 21 22 23 24 24 23 22 21 20 20 20 20 20 20 20 20 20 20 20 20 20 20 20 20 20 20 20 20 20 20 20 20
15 15 15 15 16 16 16 16 16 16 17 17 17 17 16 16 16 16 17 17 17 18 18 18 18 18 18 19 19 20 20 21 21 22 22 22 21 21 21 22 23 23 23 23 22 20 19 19 19 19 19 19 19 19 19 19 19 19 20 20 20 20 20 19 19 19 19 19 19
14 14 14 14 14 14 14 15 15 15 15 15 15 16 16 15 15 15 16 17 16 17 17 18 18 18 18 18 18 19 19 19 20 20 21 21 21 21 21 21 22 22 23 23 22 21 20 19 18 18 18 19 19 19 19 18 19 19 19 19 19 19 19 19 18 18 18 18 18
13 13 13 13 13 13 13 13 13 13 13 13 14 14 14 14 14 14 15 15 15 15 16 17 17 17 17 17 17 17 18 18 18 19 20 20 20 20 20 20 20 21 22 22 22 21 20 19 18 17 18 18 18 18 18 18 18 18 18 18 19 19 18 18 18 18 17 17 17
12 11 11 11 11 11 12 12 11 12 12 12 12 12 12 13 13 13 13 13 13 14 15 16 16 17 17 17 16 16 16 16 17 17 18 18 19 19 19 19 19 20 21 21 21 21 20 19 17 16 16 17 18 18 18 18 18 18 18 18 18 18 18 18 18 18 18 18 18
10 10 10 10 10 10 10 10 10 10 10 11 11 11 11 11 11 11 11 11 12 12 13 14 15 15 16 16 15 15 15 15 15 16 16 16 17 17 17 17 18 19 19 19 19 19 19 18 16 15 15 16 17 18 18 18 18 18 18 18 18 18 18 18 18 18 18 18 18
8 8 8 8 8 8 8 8 8 8 9 10 10 10 10 9 9 9 9 10 11 11 12 12 13 13 14 14 14 15 15 15 15 15 15 15 15 15 15 16 16 17 17 17 16 16 16 16 15 14 14 15 16 17 18 18 18 18 18 18 18 18 18 18 18 18 18 18 18
7 7 7 7 7 6 6 6 7 7 8 8 8 8 8 8 8 8 8 9 10 10 10 10 10 11 11 12 13 14 15 15 15 15 15 15 15 15 14 14 14 15 15 15 15 15 14 14 14 13 13 14 16 17 18 18 18 18 18 18 19 19 19 19 18 18 18 18 18
6 6 6 6 6 6 6 6 7 7 7 7 7 7 8 8 7 7 7 8 9 9 9 9 9 9 9 10 11 13 14 14 15 15 15 15 16 16 15 15 14 13 14 14 15 14 14 13 13 13 12 13 15 17 18 18 18 18 18 19 19 19 20 20 19 19 18 17 17
5 5 6 5 5 6 6 7 7 7 7 7 7 7 7 7 6 7 7 7 8 8 8 8 9 8 8 8 10 11 12 13 13 14 14 15 15 16 17 16 15 14 13 14 14 15 14 14 13 13 12 13 15 16 18 18 18 18 18 19 19 19 20 20 20 19 18 17 17
5 5 5 5 5 6 7 6 6 6 6 6 6 6 6 6 6 6 7 7 7 7 7 8 8 7 7 7 8 8 9 10 11 12 13 14 14 15 16 17 17 16 14 14 14 15 15 14 14 13 13 13 14 16 17 17 18 18 18 18 18 19 19 19 19 18 18 17 17
5 5 5 5 6 6 6 6 6 6 6 6 6 5 5 5 6 6 6 6 6 7 7 7 7 6 6 7 6 6 7 7 9 10 11 12 13 14 16 17 18 17 15 14 14 14 14 14 14 13 13 13 14 15 16 16 17 17 18 18 18 18 18 18 18 18 17 17 17
5 4 4 5 5 6 6 6 6 6 6 5 5 4 5 5 6 6 6 6 7 7 7 6 6 6 7 7 5 5 5 5 6 8 9 11 12 13 14 16 17 18 16 14 13 13 14 14 14 13 13 13 13 14 15 15 16 17 17 17 17 17 17 17 17 17 17 17 17
5 4 4 5 5 6 6 6 6 5 5 4 4 4 5 6 7 7 7 7 8 7 6 5 5 6 7 6 5 5 4 4 4 5 7 9 10 11 13 15 17 17 17 14 13 13 13 14 14 14 13 13 13 14 14 15 15 16 16 16 16 16 17 17 17 17 17 17 17
4 4 4 4 5 6 6 6 5 5 4 4 4 5 6 7 8 8 8 8 8 7 6 5 6 7 7 7 6 5 4 4 3 4 5 6 8 10 12 14 15 17 17 15 13 13 13 14 14 14 13 13 13 13 13 14 14 15 15 15 15 15 16 16 16 16 16 15 15
4 4 4 5 5 5 5 5 5 5 4 4 5 6 7 8 8 9 9 8 7 6 6 6 7 8 8 8 8 7 6 4 3 3 3 4 6 8 10 13 14 16 16 16 14 13 12 13 14 14 14 13 13 13 13 13 13 14 14 14 14 14 14 14 15 15 15 14 14
4 4 4 5 5 5 5 5 5 5 5 6 6 7 8 8 8 8 8 7 6 6 6 7 8 9 9 9 9 8 7 5 4 3 3 3 4 7 9 12 13 14 15 16 15 13 12 12 13 13 13 13 12 12 12 12 12 13 13 13 13 12 12 13 14 14 14 13 13
4 4 4 5 5 5 5 5 5 6 6 7 8 8 8 8 8 8 8 7 7 7 7 8 8 9 9 9 9 9 8 7 6 4 3 3 4 6 8 11 12 13 14 15 15 13 12 12 12 13 13 12 11 11 11 11 12 12 12 12 12 12 12 13 13 14 14 14 14
4 4 4 4 5 5 5 5 5 6 7 7 8 8 8 8 8 8 8 7 7 7 7 8 8 8 9 9 9 9 9 9 8 6 5 4 4 6 8 9 11 12 14 15 15 13 12 11 12 12 12 12 11 11 10 10 11 11 12 12 12 12 12 13 14 15 15 15 15
4 3 3 4 4 4 4 5 5 6 7 7 8 8 8 8 8 8 7 6 6 6 6 7 7 8 9 9 10 10 10 9 9 8 6 5 5 6 7 8 9 11 13 15 15 13 12 11 12 12 13 13 12 11 10 10 10 11 12 12 12 13 13 13 14 16 17 16 15
3 3 2 2 3 3 4 4 5 5 6 7 7 7 7 7 7 7 6 5 5 6 6 6 7 8 8 9 9 9 9 9 9 9 8 7 7 7 7 7 8 9 12 14 14 13 12 12 11 12 13 13 12 11 11 10 10 11 12 12 13 13 13 13 15 17 18 18 16
2 2 2 2 2 3 3 4 4 5 6 6 6 6 6 6 6 6 6 5 6 6 7 7 8 8 8 7 7 8 9 9 10 10 10 9 8 7 6 6 6 8 11 14 14 14 13 12 12 12 13 14 14 12 11 10 11 12 12 12 13 13 13 14 15 18 20 20 19
1 1 1 1 2 2 3 4 4 5 5 5 5 5 5 5 5 5 5 6 6 6 7 7 7 7 7 6 6 7 8 9 9 10 10 9 8 7 6 5 6 8 11 14 14 14 13 13 12 12 13 15 15 14 12 11 11 12 13 13 13 13 13 13 15 18 20 21 20
1 0 1 1 2 2 3 4 4 5 5 5 5 5 4 4 4 4 5 5 6 7 7 7 7 7 6 6 6 7 8 9 9 9 9 9 8 7 6 6 7 9 12 13 14 14 13 13 13 13 13 14 15 15 13 12 12 13 13 13 13 12 12 13 15 18 20 21 21
Wind_Direction
55 55 55 57 59 62 65 67 69 72 75 76 75 75 76 75 74 73 72 71 69 67 66 65 63 62 61 61 61 62 64 65 65 64 64 64 65 66 67 69 71 72 73 73 74 73 73 72 71 69 66 64 61 59 58 57 58 59 59 58 54 52 51 50 49 50 51 54 55
55 56 57 58 60 63 66 67 69 71 74 76 76 76 76 75 74 74 73 72 71 71 70 68 67 65 63 62 62 63 64 65 66 67 67 67 67 68 70 71 73 74 75 75 74 72 71 70 70 68 66 63 61 57 55 54 56 57 57 56 54 53 51 49 48 49 51 52 53
56 57 58 59 60 61 63 64 67 70 72 73 75 76 75 75 74 74 73 73 75 74 73 70 68 67 65 63 63 63 64 65 66 67 66 66 67 69 70 72 74 76 76 76 75 73 71 70 69 67 65 62 59 55 52 51 53 55 54 53 54 53 50 47 48 49 51 50 51
55 56 56 57 58 59 60 63 65 68 69 71 73 74 74 74 74 74 75 76 75 73 72 71 70 69 66 65 63 63 64 64 66 66 66 66 67 68 70 72 73 74 75 76 76 74 73 71 70 67 65 63 60 56 52 50 51 52 53 53 53 52 50 48 48 49 50 50 50
54 55 56 57 57 59 60 62 64 66 68 70 71 72 73 73 74 74 75 74 72 72 72 73 72 71 69 67 64 63 63 64 64 65 65 65 67 69 70 71 71 72 73 75 75 75 74 73 70 67 65 63 62 59 57 54 52 52 52 52 51 51 50 49 48 49 50 51 51
54 55 57 58 59 59 60 61 63 65 67 70 71 71 71 71 72 72 72 72 72 73 74 73 72 71 70 68 65 64 63 63 64 65 65 65 66 68 68 68 69 69 71 73 74 74 74 73 69 66 65 64 63 62 61 59 56 53 52 50 49 49 50 49 48 49 50 52 52
56 56 57 58 59 60 61 62 63 65 67 69 70 70 70 71 71 72 72 73 73 73 72 72 71 70 69 67 65 62 61 61 62 63 64 65 66 66 66 66 66 66 67 69 70 71 71 71 68 65 63 63 61 61 62 62 60 57 53 50 48 48 48 48 49 49 50 51 52
60 59 59 60 61 61 62 63 64 65 66 67 68 69 71 72 72 72 73 72 71 71 71 72 71 70 69 67 65 62 60 59 59 61 63 64 65 65 65 65 64 64 64 65 66 67 67 68 66 64 62 61 60 59 60 62 62 60 56 51 48 47 47 48 49 49 50 51 52
62 63 63 64 64 64 64 65 66 66 67 67 68 70 71 73 73 72 71 70 71 72 73 72 72 72 71 68 65 62 60 58 57 58 60 62 63 64 64 64 63 63 62 63 64 64 65 65 64 63 62 61 60 59 60 61 61 60 57 53 49 47 46 47 48 49 50 50 51
65 66 67 67 67 68 69 69 69 69 69 68 69 70 71 72 73 72 71 72 73 73 73 72 72 72 70 68 66 63 60 58 57 57 58 59 60 61 62 62 63 62 62 61 62 62 63 63 62 62 62 62 61 60 60 61 60 58 56 53 50 47 45 45 46 47 47 48 49
69 70 71 71 72 73 73 72 71 71 70 69 70 70 71 72 72 72 73 75 74 72 71 71 72 71 70 68 66 65 62 60 58 57 57 57 58 59 61 62 63 62 62 61 61 61 62 62 62 61 61 61 60 59 59 59 59 57 55 53 50 47 44 43 43 44 44 46 47
73 75 76 77 77 78 77 75 73 72 72 71 70 70 71 71 72 74 75 76 74 72 71 71 71 70 69 68 68 66 65 62 59 57 56 56 56 57 59 60 62 62 62 61 61 61 61 61 61 60 60 59 58 58 57 57 56 55 53 51 50 47 44 42 41 41 42 44 45
77 78 79 81 81 81 80 78 76 75 75 74 74 73 73 73 75 77 77 76 74 73 72 72 71 70 69 69 69 68 66 64 61 59 57 56 55 56 57 58 60 61 62 62 61 61 61 61 60 60 59 58 57 57 56 55 54 53 51 49 48 45 43 42 41 41 42 43 44
80 80 80 81 82 82 80 78 78 78 78 78 78 78 78 78 78 79 80 79 77 76 75 74 73 71 70 70 70 69 68 66 63 61 58 56 55 55 55 56 57 59 61 61 61 61 61 61 60 60 59 58 57 57 56 55 54 52 50 48 46 44 43 43 43 42 41 41 42
80 79 79 80 80 80 78 77 77 78 79 79 80 82 82 81 81 82 82 81 80 79 78 77 75 74 73 72 71 70 69 67 65 63 60 57 54 53 53 53 54 55 57 59 60 61 61 61 60 60 60 58 58 57 56 56 55 53 51 49 47 45 44 43 44 43 42 41 41
79 78 77 77 77 77 76 75 76 77 79 80 82 83 83 83 83 82 81 80 80 79 79 78 78 77 76 74 72 72 70 69 66 64 61 57 54 52 51 50 50 50 52 55 57 58 59 60 60 60 60 59 58 57 56 55 55 53 52 50 48 46 45 44 44 45 44 43 41
78 77 77 76 76 76 76 75 76 77 78 80 82 82 82 82 82 82 80 79 78 78 78 78 79 79 77 76 74 72 71 69 67 65 62 59 55 51 49 48 47 47 47 49 52 54 56 57 58 58 59 59 58 57 56 55 54 53 52 51 49 47 46 45 45 46 45 45 43
79 79 78 78 78 78 78 78 78 78 78 79 80 80 81 81 82 81 80 79 78 78 78 78 78 79 78 77 75 73 72 71 69 66 64 61 57 52 48 46 44 44 43 44 46 48 50 52 53 54 55 56 56 55 54 54 53 52 51 50 49 47 47 46 45 46 46 46 44
80 80 80 80 80 80 80 80 80 80 79 79 79 80 80 80 81 81 81 80 78 78 78 78 78 78 77 77 76 74 73 72 70 68 66 63 59 54 49 45 43 41 40 40 41 42 44 46 47 48 49 50 51 52 52 51 51 50 49 48 47 46 46 45 45 46 47 47 46
79 79 79 80 80 80 80 80 80 80 80 80 80 79 79 79 80 81 80 79 79 80 80 79 77 76 76 75 75 74 73 72 71 70 68 65 61 57 51 46 43 40 38 36 36 36 38 40 41 43 44 45 46 47 48 48 49 48 48 47 46 46 45 44 45 46 47 49 49
76 77 78 78 79 79 79 79 79 78 78 77 77 77 77 78 78 78 78 79 81 82 81 79 76 75 73 73 72 71 71 70 70 69 68 66 63 60 54 49 44 40 37 34 32 32 32 35 37 38 40 42 43 43 44 45 46 47 47 47 47 47 46 45 46 46 48 50 51
74 75 75 75 76 77 77 77 77 76 74 73 73 74 74 75 74 75 76 79 81 82 80 77 75 73 72 71 70 70 69 69 68 68 67 66 65 62 58 52 47 43 38 33 30 28 28 30 33 35 38 40 41 42 42 43 44 45 47 47 48 48 48 47 47 48 49 51 52
72 72 72 72 73 74 75 75 75 74 72 70 70 70 70 72 72 73 75 77 79 79 78 76 74 73 72 72 71 70 68 68 67 66 66 65 65 64 61 55 50 47 43 37 32 28 26 27 30 34 38 41 42 42 42 42 42 43 45 46 46 47 48 48 48 49 49 50 51
69 69 69 69 70 71 73 73 73 72 70 68 67 67 68 69 71 72 74 75 75 75 76 76 76 76 76 75 73 70 68 66 65 64 64 63 64 64 63 61 55 51 48 45 39 34 30 29 30 34 39 43 43 42 42 41 41 42 42 42 43 43 45 46 47 48 48 49 50
68 67 67 67 69 70 71 72 72 71 70 69 67 67 66 66 67 69 70 71 71 71 72 75 77 79 79 78 75 72 69 67 65 64 63 62 62 62 62 62 59 55 52 49 46 43 40 36 32 34 39 44 43 42 41 40 40 40 40 40 39 39 39 41 43 45 46 47 48
69 69 69 69 70 72 73 72 73 74 73 72 69 67 65 64 63 65 67 68 66 65 67 70 74 77 79 80 78 74 70 67 68 68 66 64 61 59 58 58 59 59 55 50 46 45 44 42 37 34 37 43 42 40 38 37 37 38 38 38 37 36 35 35 36 39 42 45 46
73 74 74 74 76 78 78 78 79 79 78 75 71 68 65 63 62 64 65 65 63 61 62 63 65 69 77 82 82 77 72 70 70 70 69 66 63 59 55 54 55 56 53 49 46 44 43 42 40 37 37 40 42 39 36 34 34 34 36 36 36 35 34 32 32 33 35 40 43
75 76 79 83 84 85 84 85 85 83 80 76 73 71 68 66 65 66 67 67 64 62 60 59 58 62 72 82 86 86 83 80 76 73 71 68 65 60 55 51 51 50 48 46 45 43 42 40 39 38 38 38 41 39 36 33 31 31 32 34 34 34 33 32 31 30 31 34 38
76 79 83 86 87 88 89 88 85 83 81 79 78 77 76 74 74 74 74 73 70 66 62 58 55 57 64 74 84 92 95 89 82 76 73 69 64 60 56 52 48 46 45 43 43 42 41 40 38 38 37 37 40 39 36 32 30 29 30 31 32 32 31 31 30 30 29 30 34
77 79 82 83 86 87 87 85 83 83 83 84 86 86 86 85 85 85 83 80 76 71 65 59 55 55 58 63 72 86 96 95 90 83 78 72 66 62 58 54 48 43 41 40 41 41 40 38 38 37 37 37 39 38 35 32 30 28 28 28 29 29 29 29 29 29 29 29 31
76 77 77 80 82 84 84 84 85 88 91 95 97 97 95 95 95 93 90 86 82 78 72 63 56 55 55 57 61 71 86 100 103 94 83 75 69 65 60 56 49 42 37 36 39 40 39 37 35 35 35 35 37 37 34 32 30 28 27 26 27 28 28 27 27 28 28 28 28
78 77 77 80 82 84 86 89 93 99 104 108 107 104 101 100 99 98 96 94 91 87 79 66 57 55 55 54 56 61 73 88 99 98 88 77 70 64 60 57 51 41 33 31 34 37 37 35 33 32 32 32 35 35 34 32 30 28 27 26 26 26 26 25 25 25 26 26 25
83 84 85 85 88 91 94 99 104 111 114 114 110 107 105 104 104 103 102 99 94 87 76 64 59 58 57 55 56 58 64 73 87 97 97 85 72 64 60 57 51 41 32 27 30 33 35 34 31 29 29 30 32 33 33 32 30 29 27 26 25 24 24 23 22 21 21 22 21
89 92 94 95 98 102 105 109 114 118 119 116 112 108 107 108 108 106 102 97 91 82 75 67 64 61 60 58 58 59 62 67 78 93 104 100 84 71 63 57 52 43 33 26 28 32 34 32 30 27 27 28 30 31 32 33 31 29 27 26 25 23 23 21 20 18 18 19 19
91 97 101 104 107 110 114 117 120 122 121 117 113 111 109 108 106 102 99 96 91 85 79 73 69 65 63 61 60 60 61 63 69 79 95 108 98 81 68 60 54 47 36 27 28 33 37 32 28 26 26 29 31 33 34 33 30 28 27 25 24 23 21 20 19 18 18 19 19
87 95 104 109 113 116 119 121 123 123 119 115 112 111 109 106 102 100 99 98 97 91 83 77 71 67 63 60 59 59 59 60 63 70 83 102 101 88 75 65 57 48 36 28 27 33 38 34 28 26 27 30 33 36 36 33 30 27 25 24 24 23 22 20 18 17 17 18 16
80 88 100 110 116 119 121 124 125 121 116 113 111 110 108 106 103 101 100 100 98 92 85 77 71 66 62 59 59 59 60 60 62 65 74 89 91 85 78 70 60 47 34 26 26 30 36 36 32 28 29 30 32 34 34 33 30 25 22 22 22 23 23 21 19 17 16 16 12
70 78 93 109 116 121 125 127 125 119 114 113 113 112 112 110 106 102 99 95 91 87 81 76 71 66 63 61 61 62 63 62 61 61 65 72 75 75 75 73 61 44 31 25 25 28 32 33 31 28 27 29 30 30 31 31 27 23 20 20 20 21 22 21 18 16 16 15 13
64 74 92 115 126 131 133 130 124 118 115 115 116 117 117 114 109 104 98 92 87 83 78 74 70 67 64 62 62 63 64 64 62 60 59 62 65 68 73 76 59 40 31 28 27 28 29 27 28 27 26 26 29 30 29 27 24 20 18 18 17 17 17 17 15 13 14 14 14
58 75 105 133 145 147 143 135 127 122 120 119 119 118 115 111 108 107 105 100 93 85 78 73 68 65 63 61 61 62 64 64 63 61 59 60 64 69 76 78 59 42 35 31 29 28 28 27 26 25 24 23 26 28 28 25 21 19 17 16 13 12 11 10 9 9 11 13 13
52 98 142 157 159 158 152 142 134 130 128 125 121 116 110 107 107 109 110 106 100 91 81 74 67 63 61 60 61 62 64 63 63 63 62 63 65 69 73 70 57 47 40 34 29 26 25 25 24 23 22 19 21 25 26 22 19 17 15 13 11 8 5 3 3 5 7 10 11